Flag for Japan Weather past 2 weeks in Suzuka, Japan

Now
38 °F

Chilly.


Feels Like: 31 °F
Forecast: 38 / 45 °F
Wind: 9 mph from Northwest

Location: Tsu

Current Time: Feb 1, 2015 at 8:59:26 PM

Latest Report: Feb 1, 2015 at 8:00 PM


Visibility: N/A

Pressure: 30.33 "Hg

Humidity: 69%

Dew point: 29 °F

Location of SuzukaLocation

Historic Weather in Suzuka — Graph

°F

Suzuka temperature yesterday

Maximum temperature yesterday: 44 °F (at 1:00 AM)
Minimum temperature yesterday: 33 °F (at 10:00 PM)
Average temperature yesterday: 39 °F

Past Weeks' High & Low Weather Summary

 TemperatureHumidityPressure
High55 °F (Jan 27, 9:00 AM)96% (Jan 22, 2:00 PM)30.40 "Hg (Jan 22, 2:00 PM)
Low33 °F (Jan 29, 5:00 AM)36% (Jan 24, 2:00 PM)29.61 "Hg (Jan 23, 1:00 AM)
Average42 °F66%30.13 "Hg
* Reported Jan 17 7:00 PM — Feb 1 7:00 PM, Suzuka, Weather by CustomWeather, © 2014

Note: Actual official high and low records may vary slightly from our data, if they occured in-between our weather recording intervals... More about our weather records

Advertising

Suzuka weather history for previous 24 hours

 ConditionsComfort  
Time TempWeatherWind HumidityBarometerVisibility
7:00 PM
Feb 1
38 °FChilly.13 mph67%30.31 "HgN/A
6:00 PM38 °FChilly.16 mph61%30.31 "HgN/A
5:00 PM39 °FChilly.17 mph56%30.29 "HgN/A
4:00 PM40 °FQuite cool.14 mph56%30.28 "HgN/A
3:00 PM41 °FOvercast.15 mph57%30.28 "Hg16 mi
2:00 PM40 °FQuite cool.15 mph63%30.28 "HgN/A
1:00 PM40 °FChilly.16 mph60%30.29 "HgN/A
12:00 PM41 °FQuite cool.16 mph57%30.30 "HgN/A
11:00 AM38 °FChilly.13 mph70%30.32 "HgN/A
10:00 AM39 °FChilly.14 mph69%30.32 "HgN/A
9:00 AM37 °FPartly sunny.12 mph71%30.32 "Hg19 mi
8:00 AM34 °FChilly.10 mph81%30.31 "HgN/A
7:00 AM34 °FChilly.10 mph84%30.29 "HgN/A
6:00 AM33 °FChilly.12 mph86%30.28 "HgN/A
5:00 AM33 °FChilly.8 mph86%30.26 "HgN/A
4:00 AM34 °FChilly.9 mph83%30.25 "HgN/A
3:00 AM35 °FChilly.10 mph76%30.24 "HgN/A
2:00 AM33 °FChilly.10 mph84%30.23 "HgN/A
1:00 AM33 °FChilly.9 mph86%30.23 "HgN/A
12:00 AM34 °FChilly.10 mph74%30.23 "HgN/A
11:00 PM
Jan 31
34 °FChilly.9 mph78%30.22 "HgN/A
10:00 PM33 °FChilly.9 mph85%30.22 "HgN/A
9:00 PM34 °FSnow flurries. Overcast.12 mph78%30.21 "Hg3 mi
8:00 PM35 °FChilly.9 mph77%30.19 "HgN/A
Weather by CustomWeather, © 2014

See weather overviewHow to use our weather pages